Weather in Kubanka

Russia / Orenburg Oblast     52°17′52″N   54°27′23″E
temp.,
°C
wind,
m/s
gust,
m/s
humid.,
%
clouds,
%
prec.,
mm/h
press.,
hPa
HPBL,
m
7 march, sun
sun723:00−8ene1190100 0.0 101321
02:00−8ne2396100 0.8 101198
05:00−8nne4895100 1.6 1009280
08:00−10n4795100 0.5 1009212
11:00−11n5885100 0.5 1011298
14:00−10nw578427 0.0 1012316
17:00−11wnw359014 0.0 1013169
20:00−14wsw34930 0.0 101427
8 march, mon
mon823:00−15sw479023 0.0 1015119
02:00−14sw5119885 0.0 1014228
05:00−11ssw8169193 0.1 1012451
08:00−9ssw101891100 0.2 1009696
11:00−7sw121991100 0.4 1008944
14:00−4sw111693100 0.5 10081057
17:00−3sw91492100 1.0 10081005
20:00−3sw71395100 0.4 1009738
9 march, tue
tue923:00−3sw71295100 1.1 1009650
02:00−3sw81494100 0.5 1008653
05:00−3sw81495100 1.1 1007734
08:00−3sw81493100 0.4 1007651
11:00−3sw71294100 0.6 1008756
14:00−4wnw4786100 0.8 1009500
17:00−5n1283100 0.8 1009195
20:00−7ne4796100 1.1 1007310
10 march, wed
wed1023:00−8n5895100 4.0 1007394
02:00−11nw599598 0.4 1006241
05:00−14wnw499895 0.4 1008189
08:00−17wnw4510097 0.0 101093
11:00−15wnw589699 0.1 1012269
14:00−14wnw5795100 0.0 1013347
17:00−14wnw5893100 0.1 1014527
20:00−16nw489797 0.1 1016195
11 march, thu
thu1123:00−20wnw4610094 0.1 1017132
02:00−22nw3310096 0.1 101833
05:00−23nw3410090 0.1 102049
08:00−25nw3410075 0.0 102239
11:00−23nw349884 0.0 1024173
14:00−21wnw359563 0.0 1025240
17:00−21wnw479339 0.0 1026276
20:00−24w44950 0.0 102765